STARLINK-6033, 56322

Orbit data source: Space-Track

STARLINK-6033, 56322 is a payload satellite owned by SpaceX/Seattle (US) in SSO that was launched on Thu, 27 Apr 2023 UTC via an FALCON 9 launch vehicle from the Air Force Western Test Range (AFWTR). Payload-class satellites include a variety of spacecraft equipped with specific instruments for various scientific and technological missions. These include communications satellites like Starlink; space stations such as the ISS; scientific satellites like the Hubble; Earth observation satellites from companies like Planet Labs, Umbra, and HawkEye 360; GPS; miniature CubeSats for education and research; and military/defense satellites.

Loading next visibility...
Identifier
56322, 2023-058F
Orbit
SSO
Country
Flag of USUS
Related business
Manufacturer
SpaceX/Seattle
Mission
Operational Commercial Communications
Bus & Motor
STARLINK, Unknown motor
Mass
300 kg wet, ~260 kg dry
Launch date (UTC)
2023-04-27 (3 years ago)
Launch vehicle
FALCON 9
Launch site
Air Force Western Test Range (AFWTR)
Object type
Payload
Rocket body
Debris
Shape & HBR
Box + 1 Pan, 10.1 m
Radar Cross Section
11.087 m², Large (>1 m²)

Expand to show TLE details & history
Last TLE update: 2 days ago

TLE from 2 days ago
0 STARLINK-6033
1 56322U 23058F   26171.42388939 -.00003005  00000-0 -20525-3 0  9996
2 56322  97.3354 170.2952 0001701 113.9143 246.2262 15.05501630173234
Epoch: 2026-06-20T10:10Z
TLE epoch observation values (Epoch: 2026-06-20T10:10:24.043Z)
Latitude
-0.00009°
Longitude
109.05632°
Altitude
553.514 km
Speed
7.585 km/s
True Right ascension
11h 21m 10s
True Declination
0° 00' 00"
Sunlit
Object was in daylight at epoch
Visualization orbit readout
Latitude
Unknown
Longitude
Unknown
Altitude
Unknown
Speed
Unknown
Apparent Right ascension
Unknown
Apparent Declination
Unknown
Sunlit
N/A
Visualization observer readout
Local Sidereal Time
21:28:07
Azimuth
Unknown
Elevation
Unknown
Doppler factor
Unknown
Orbital elements
Apogee altitude
548.126 km
Perigee altitude
545.771 km
Semi-major axis
6,925.086 km
Eccentricity
0.00017
Inclination
97.3354°
RAAN
170.2952°
Arg. of periapsis
113.9143°
True anomaly
246.20836°
Mean anomaly
246.2262°
Eccentric anomaly
246.21728°
Mean motion
3.76622 °/min
Orbital period
95.59 mins
BSTAR
-0.00020525
Loading maneuver chart data...
Computing Atmospheric mass density...
Loading historical data...
Loading historical data...
Loading historical data...
Loading historical data...
Loading historical data...
Loading historical data...
Loading historical data...

Documentation

Showing up to 5 results
|